Lapeer, MI

4:47 AM EDT on March 24, 2017 (GMT -0400)
Lapeer

Weather History for KD95 - September, 2013

Change the Weather History Date:

Friday, September 13, 2013

  Actual Average (KFNT) Record (KFNT)
Temperature  
Mean Temperature 46 °F -  
Max Temperature 56 °F 73 °F 93 °F (1952)
Min Temperature 36 °F 53 °F 33 °F (1964)
Degree Days  
Heating Degree Days 18    
Moisture  
Dew Point 44 °F    
Average Humidity 76    
Maximum Humidity 99    
Minimum Humidity 50    
Precipitation  
Precipitation 0.06 in - - ()
Sea Level Pressure  
Sea Level Pressure 30.07 in    
Wind  
Wind Speed 8 mph (North)    
Max Wind Speed 16 mph    
Max Gust Speed 23 mph    
Visibility 10 miles    
Events Rain    
Averages and records for this station are not official NWS values.
T = Trace of Precipitation, MM = Missing Value Source: NWS Daily Summary

Daily Weather History Graph

Daily Weather History Graph

Search for Another Location

Airport or City:

Trip Planner

Search our weather history database for the weather conditions in past years. The results will help you decide how hot, cold, wet, or windy it might be!

Date:

Astronomy

Sep. 13, 2013 Rise Set
Actual Time 7:10 AM EDT 7:46 PM EDT
Civil Twilight 6:42 AM EDT 8:14 PM EDT
Nautical Twilight 6:08 AM EDT 8:48 PM EDT
Astronomical Twilight 5:33 AM EDT 9:23 PM EDT
Moon 3:41 PM EDT (9/13) 12:32 AM EDT (9/13)
Length of Visible Light 13h 32m
Length of Day
12h 35m
First Quarter, 61% of the Moon is Illuminated
Sep 13
First Quarter
Sep 19
Full
Sep 26
Last Quarter
Oct 4
New
Oct 11
First Quarter

Hourly Weather History & Observations

Time (EDT) Temp. Dew Point Humidity Pressure Visibility Wind Dir Wind Speed Gust Speed Precip Events Conditions
12:14 AM 56.7 °F 44.6 °F 64% 29.97 in 10.0 mi NNW 5.8 mph - N/A   Overcast
12:33 AM 56.7 °F 44.8 °F 64% 29.97 in 10.0 mi North 8.1 mph - N/A   Overcast
12:54 AM 56.7 °F 44.8 °F 64% 29.97 in 10.0 mi North 9.2 mph 19.6 mph N/A   Overcast
1:14 AM 56.3 °F 44.8 °F 65% 29.97 in 10.0 mi North 11.5 mph 20.7 mph N/A   Overcast
1:33 AM 55.9 °F 45.0 °F 67% 29.98 in 10.0 mi NNW 9.2 mph 17.3 mph N/A   Overcast
1:54 AM 55.8 °F 44.8 °F 67% 29.97 in 10.0 mi North 9.2 mph 20.7 mph N/A   Overcast
2:14 AM 55.4 °F 45.1 °F 68% 29.98 in 10.0 mi NNW 6.9 mph - N/A   Overcast
2:33 AM 55.0 °F 45.5 °F 70% 29.98 in 10.0 mi NNW 9.2 mph - N/A   Overcast
2:54 AM 54.9 °F 45.5 °F 71% 29.98 in 10.0 mi NNW 8.1 mph - N/A   Overcast
3:13 AM 54.7 °F 45.9 °F 72% 29.98 in 10.0 mi NNW 10.4 mph 16.1 mph N/A   Overcast
3:33 AM 54.5 °F 46.4 °F 74% 29.98 in 10.0 mi NNW 10.4 mph - N/A   Overcast
3:54 AM 53.6 °F 45.0 °F 73% 29.98 in 10.0 mi NW 9.2 mph - N/A   Overcast
4:13 AM 53.4 °F 45.0 °F 73% 29.98 in 10.0 mi NW 9.2 mph - N/A   Overcast
4:33 AM 53.6 °F 47.1 °F 79% 29.99 in 10.0 mi NW 6.9 mph - N/A   Overcast
4:54 AM 52.2 °F 47.8 °F 85% 29.99 in 7.0 mi NNW 6.9 mph - N/A Rain Light Rain
5:13 AM 51.6 °F 48.2 °F 88% 30.00 in 7.0 mi NW 5.8 mph - N/A   Drizzle
5:33 AM 50.2 °F 48.7 °F 95% 30.00 in 4.0 mi WNW 6.9 mph - 0.01 in   Heavy Drizzle
5:53 AM 50.0 °F 49.1 °F 97% 30.01 in 4.0 mi North 3.5 mph - 0.02 in Rain Heavy Rain
6:13 AM 50.2 °F 49.5 °F 97% 30.01 in 4.0 mi North 3.5 mph - 0.02 in Rain Heavy Rain
6:34 AM 50.7 °F 49.5 °F 95% 30.01 in 10.0 mi North 5.8 mph - 0.03 in Rain Rain
6:54 AM 50.9 °F 49.5 °F 95% 30.01 in 10.0 mi North 3.5 mph - 0.04 in   Light Drizzle
7:13 AM 50.9 °F 49.6 °F 95% 30.02 in 10.0 mi North 5.8 mph - N/A   Overcast
7:34 AM 50.5 °F 48.6 °F 93% 30.03 in 10.0 mi North 5.8 mph - N/A   Overcast
7:53 AM 50.5 °F 48.4 °F 92% 30.03 in 10.0 mi North 6.9 mph - N/A   Overcast
8:13 AM 50.5 °F 48.4 °F 92% 30.03 in 10.0 mi North 6.9 mph - N/A   Overcast
8:34 AM 50.5 °F 47.8 °F 90% 30.04 in 10.0 mi North 9.2 mph - N/A   Overcast
8:53 AM 50.7 °F 47.3 °F 88% 30.05 in 10.0 mi North 9.2 mph - N/A   Overcast
9:13 AM 50.9 °F 46.8 °F 86% 30.05 in 10.0 mi North 6.9 mph - N/A   Overcast
9:34 AM 51.1 °F 46.9 °F 86% 30.05 in 10.0 mi North 10.4 mph 16.1 mph N/A   Overcast
9:53 AM 51.8 °F 46.9 °F 83% 30.06 in 10.0 mi North 9.2 mph - N/A   Overcast
10:14 AM 51.6 °F 46.9 °F 84% 30.07 in 10.0 mi North 5.8 mph - N/A   Overcast
10:33 AM 54.3 °F 46.8 °F 76% 30.07 in 10.0 mi North 15.0 mph 19.6 mph N/A   Mostly Cloudy
10:53 AM 55.8 °F 46.4 °F 71% 30.08 in 10.0 mi North 13.8 mph 19.6 mph N/A   Mostly Cloudy
11:14 AM 55.2 °F 45.7 °F 70% 30.08 in 10.0 mi North 12.7 mph 20.7 mph N/A   Overcast
11:34 AM 54.5 °F 45.0 °F 70% 30.08 in 10.0 mi North 9.2 mph - N/A   Overcast
11:53 AM 54.9 °F 45.3 °F 70% 30.09 in 10.0 mi NNW 11.5 mph - N/A   Overcast
12:14 PM 52.3 °F 45.1 °F 76% 30.10 in 10.0 mi North 10.4 mph 18.4 mph N/A   Overcast
12:33 PM 53.2 °F 45.1 °F 74% 30.10 in 10.0 mi NNE 11.5 mph 16.1 mph N/A Rain Light Rain
12:53 PM 55.9 °F 44.6 °F 66% 30.10 in 10.0 mi North 16.1 mph 23.0 mph N/A   Overcast
1:14 PM 52.7 °F 46.4 °F 79% 30.10 in 10.0 mi North 9.2 mph - N/A   Overcast
1:33 PM 53.1 °F 45.1 °F 74% 30.10 in 10.0 mi North 9.2 mph - N/A   Overcast
1:53 PM 54.7 °F 44.1 °F 67% 30.10 in 10.0 mi NNW 11.5 mph 16.1 mph N/A   Overcast
2:14 PM 51.6 °F 44.1 °F 75% 30.10 in 10.0 mi North 11.5 mph 19.6 mph N/A Rain Light Rain
2:33 PM 53.6 °F 44.2 °F 71% 30.10 in 10.0 mi North 9.2 mph 16.1 mph N/A   Overcast
2:53 PM 52.3 °F 43.5 °F 72% 30.11 in 10.0 mi North 13.8 mph 20.7 mph N/A   Overcast
3:14 PM 53.4 °F 43.2 °F 68% 30.11 in 10.0 mi North 10.4 mph - N/A   Overcast
3:33 PM 53.8 °F 40.5 °F 61% 30.11 in 10.0 mi North 11.5 mph 20.7 mph N/A   Overcast
3:53 PM 54.7 °F 38.5 °F 54% 30.10 in 10.0 mi North 11.5 mph 20.7 mph N/A   Overcast
4:14 PM 55.8 °F 39.2 °F 54% 30.10 in 10.0 mi North 8.1 mph 19.6 mph N/A   Overcast
4:33 PM 56.5 °F 38.1 °F 50% 30.10 in 10.0 mi North 6.9 mph - N/A   Overcast
4:54 PM 55.8 °F 37.6 °F 51% 30.10 in 10.0 mi NNE 12.7 mph 18.4 mph N/A   Mostly Cloudy
5:13 PM 56.3 °F 38.3 °F 51% 30.11 in 10.0 mi NNE 10.4 mph - N/A   Scattered Clouds
5:33 PM 55.4 °F 37.8 °F 52% 30.10 in 10.0 mi NNE 9.2 mph 17.3 mph N/A   Clear
5:54 PM 55.0 °F 38.3 °F 53% 30.11 in 10.0 mi NNE 10.4 mph 16.1 mph N/A   Clear
6:13 PM 54.7 °F 38.1 °F 54% 30.11 in 10.0 mi NNE 9.2 mph - N/A   Clear
6:33 PM 54.0 °F 37.8 °F 54% 30.11 in 10.0 mi NNE 8.1 mph - N/A   Clear
6:54 PM 53.1 °F 38.3 °F 57% 30.11 in 10.0 mi NNE 8.1 mph - N/A   Clear
7:13 PM 51.8 °F 39.0 °F 62% 30.12 in 10.0 mi NNE 4.6 mph - N/A   Clear
7:33 PM 49.8 °F 39.9 °F 69% 30.12 in 10.0 mi NE 3.5 mph - N/A   Clear
7:54 PM 48.2 °F 39.9 °F 73% 30.12 in 10.0 mi Calm Calm - N/A   Clear
8:13 PM 45.5 °F 40.8 °F 84% 30.13 in 10.0 mi Calm Calm - N/A   Clear
8:33 PM 45.3 °F 40.5 °F 83% 30.13 in 10.0 mi Calm Calm - N/A   Clear
8:54 PM 44.2 °F 40.1 °F 85% 30.14 in 10.0 mi Calm Calm - N/A   Clear
9:13 PM 43.3 °F 39.6 °F 87% 30.15 in 10.0 mi Calm Calm - N/A   Clear
9:33 PM 42.4 °F 39.7 °F 90% 30.15 in 10.0 mi Calm Calm - N/A   Clear
9:54 PM 40.3 °F 39.2 °F 96% 30.15 in 10.0 mi Calm Calm - N/A   Clear
10:13 PM 39.2 °F 38.1 °F 96% 30.15 in 10.0 mi Calm Calm - N/A   Clear
10:33 PM 38.1 °F 37.8 °F 99% 30.15 in 10.0 mi Calm Calm - N/A   Clear
10:54 PM 37.8 °F 37.4 °F 99% 30.15 in 10.0 mi Calm Calm - N/A   Clear
11:13 PM 38.1 °F 37.8 °F 99% 30.15 in 10.0 mi Calm Calm - N/A   Clear
11:33 PM 37.4 °F 37.0 °F 99% 30.15 in 10.0 mi Calm Calm - N/A   Clear
11:54 PM 36.7 °F 36.5 °F 99% 30.15 in 10.0 mi Calm Calm - N/A   Clear